GFSFLT2_925_thetae_174.txt.gz
Theta_e
331 331 332 333 335 338 338 338 335 334 337 337 336 335 335 334 334 334 334 334 335 336 337 336 335 334 333 334 334 335 335 335
333 332 332 332 334 335 336 336 335 336 337 336 335 335 335 335 335 336 337 337 336 335 334 333 333 332 333 334 334 333 333 334
335 335 334 334 334 335 335 335 336 338 337 336 335 335 335 335 336 337 336 334 333 333 332 332 331 331 331 332 332 332 331 332
336 336 336 335 335 336 337 337 338 337 336 336 336 336 336 335 335 334 333 331 330 329 329 329 328 328 327 327 327 328 329 329
340 336 335 336 336 338 338 337 337 337 336 337 337 336 334 333 331 330 329 328 327 326 325 325 324 323 321 321 320 320 322 324
340 336 336 337 336 335 337 338 337 339 339 338 336 333 331 330 328 327 326 325 324 322 320 319 317 315 314 313 313 313 313 318
337 336 339 338 337 335 336 339 339 338 337 336 335 332 330 329 327 325 324 322 319 315 313 310 308 308 308 309 309 309 311 314
337 335 336 337 335 335 338 337 337 337 337 336 336 333 330 328 326 323 321 318 312 308 306 306 306 306 306 306 307 307 309 311
338 335 333 333 333 337 336 336 336 336 336 335 333 331 328 326 323 321 317 311 306 305 305 305 305 304 303 304 306 307 310 315
336 334 333 333 336 335 335 335 334 334 333 332 329 327 325 323 322 320 316 307 305 305 305 305 303 303 306 310 310 311 315 315
336 335 336 335 335 335 335 333 330 329 328 328 326 323 321 320 319 316 310 306 305 304 304 303 303 305 312 316 316 315 313 310
336 335 336 335 334 334 333 329 327 327 327 326 324 321 319 316 313 310 306 305 304 304 303 303 308 307 314 313 312 310 308 307
337 335 335 334 333 330 325 322 319 320 319 318 317 315 313 311 309 306 305 304 303 303 303 310 311 311 310 306 306 308 308 307
335 334 333 331 328 325 323 319 314 314 312 311 311 310 309 307 306 306 304 303 303 303 302 309 308 308 307 303 302 301 301 302
334 330 331 327 323 320 319 314 311 309 308 308 308 307 307 306 305 305 302 301 302 303 302 302 303 303 308 306 302 302 299 298
331 327 324 321 321 317 316 312 308 307 307 307 307 305 305 305 305 303 302 301 300 301 301 300 300 301 303 301 303 302 300 298
323 320 317 315 314 315 313 310 308 307 305 305 305 305 304 304 304 303 301 300 299 299 299 299 299 299 299 299 300 300 300 297
315 312 311 311 312 312 312 309 308 305 304 304 304 304 303 303 302 301 300 298 297 297 297 297 297 297 297 299 299 298 296 295
312 311 310 311 310 311 311 311 309 307 306 304 303 302 302 302 300 299 298 296 296 296 295 296 295 295 295 296 296 296 296 295
315 315 316 316 316 316 313 311 309 307 306 305 303 302 302 300 299 297 296 295 295 294 294 294 295 294 294 294 294 294 294 293

GFSFLT2_925_thetae_177.txt.gz
Theta_e
327 329 332 335 337 338 336 334 334 336 336 336 335 335 335 336 335 334 333 334 334 335 336 335 334 334 333 334 334 335 336 337
330 331 334 337 339 339 338 336 334 336 337 337 336 335 335 335 334 334 334 335 336 336 334 332 332 333 333 334 334 333 334 334
335 337 338 339 340 340 339 337 336 337 339 338 336 338 336 335 336 336 336 336 334 333 332 331 331 331 331 331 331 333 333 333
337 339 338 338 338 339 339 338 338 340 340 338 337 335 335 335 336 336 334 333 332 330 329 328 328 328 328 328 329 328 329 332
337 342 339 338 337 342 342 344 346 342 339 337 336 335 335 335 334 333 331 329 328 326 326 326 325 325 324 324 323 323 328 329
337 337 340 338 339 343 343 343 342 339 338 336 336 336 334 333 332 330 328 326 325 323 322 320 319 317 317 316 315 317 323 324
336 337 336 338 338 339 338 338 337 336 337 337 337 335 333 331 329 327 325 323 321 318 314 312 310 310 310 310 310 310 315 321
336 336 337 336 337 336 335 334 335 335 337 338 336 334 331 329 327 324 323 320 317 312 308 307 306 307 306 307 307 309 317 318
336 337 335 335 336 335 334 335 335 335 336 336 335 333 331 329 326 323 320 318 312 307 306 305 305 304 304 306 308 310 314 317
336 336 335 335 335 334 334 334 337 335 334 335 334 334 330 327 324 321 319 313 307 305 305 304 303 305 311 311 311 314 314 314
337 336 335 334 334 333 334 333 335 335 335 334 333 331 328 324 322 320 315 308 305 305 304 303 307 313 312 313 313 312 311 310
338 337 335 334 333 332 333 332 332 333 332 332 329 326 322 320 319 317 313 306 305 304 303 305 310 313 311 309 309 309 309 309
338 335 334 332 330 327 327 326 323 322 323 322 321 320 318 317 316 312 308 305 304 303 305 308 309 310 309 307 305 305 306 306
337 335 332 330 329 327 326 321 317 319 316 316 315 315 314 313 312 309 306 304 303 303 307 308 308 307 311 310 310 305 303 303
338 335 333 330 327 326 322 318 316 312 312 311 311 311 310 309 307 306 304 303 303 302 308 309 308 305 308 312 311 313 304 301
339 332 328 325 323 323 323 318 313 311 312 311 310 309 307 306 306 305 303 302 302 303 301 306 307 306 304 303 306 305 308 304
328 324 321 318 317 317 316 314 311 311 311 309 309 308 307 306 305 303 301 300 300 300 301 300 300 303 304 302 303 303 303 304
316 316 314 314 314 313 311 309 307 305 304 304 304 303 302 304 303 302 300 299 298 298 298 298 298 299 299 301 302 304 304 303
312 313 311 313 314 314 313 313 311 308 305 304 304 303 302 301 301 301 300 298 297 296 296 296 296 296 297 298 298 298 299 299
313 314 314 317 317 315 315 313 312 309 308 305 304 304 303 301 301 300 299 298 296 296 295 296 295 295 295 295 295 295 295 296

GFSFLT2_925_thetae_180.txt.gz
Theta_e
345 343 337 334 333 333 332 333 333 334 334 334 335 336 337 337 336 338 337 336 334 334 334 335 335 334 334 333 334 335 338 337
346 345 343 342 339 334 334 335 336 336 336 336 336 337 337 337 337 336 335 334 335 335 335 333 333 333 334 334 334 334 334 334
342 343 344 344 343 340 336 336 337 338 338 337 337 340 339 338 338 335 335 336 335 333 332 332 332 332 333 333 334 333 332 333
341 342 342 343 342 343 342 341 341 341 342 340 340 340 339 339 338 336 335 334 332 331 331 330 329 328 328 330 330 333 332 332
340 343 342 342 341 343 344 343 342 342 342 342 340 340 339 338 335 333 331 331 328 327 326 327 327 326 326 326 328 330 330 332
339 339 341 341 341 343 342 341 341 341 341 342 340 338 337 337 336 334 331 329 327 326 325 324 323 322 322 323 325 326 328 329
339 339 339 340 340 340 341 341 341 340 341 341 338 337 337 335 334 331 330 327 326 324 322 320 319 318 317 318 321 323 324 325
340 339 339 339 340 340 340 340 339 341 341 339 339 338 335 333 330 329 326 325 322 320 318 317 315 314 314 315 318 319 321 322
339 339 339 339 340 341 340 340 340 340 339 338 339 338 334 331 329 326 323 320 319 317 315 313 312 312 313 314 317 319 319 320
339 339 338 338 340 340 339 338 338 338 337 337 337 335 332 330 327 324 320 318 316 314 312 311 311 312 313 315 316 316 317 318
340 339 338 339 338 338 338 336 336 334 333 335 336 332 329 328 325 322 318 317 315 313 311 310 312 315 315 316 316 316 316 316
342 340 338 338 336 335 335 333 332 333 333 334 333 334 331 325 323 320 318 316 314 311 310 311 314 315 314 315 315 315 314 315
343 339 338 337 335 331 329 328 330 329 330 331 332 331 325 320 320 318 317 315 313 311 311 312 315 314 314 313 313 313 313 313
343 339 337 335 333 330 328 325 324 326 326 325 323 323 320 318 318 317 315 313 311 310 312 312 314 314 314 314 315 312 311 311
342 339 335 334 331 328 325 322 320 319 318 318 316 315 315 313 314 312 312 311 310 310 312 312 313 314 314 315 316 316 311 308
341 337 333 332 328 324 321 322 318 316 313 311 311 310 309 308 309 307 306 306 307 307 310 312 312 311 312 309 312 313 313 310
337 332 329 327 325 322 321 319 312 310 310 307 306 304 304 304 303 303 303 301 302 304 304 305 308 310 311 309 309 310 311 310
321 322 320 320 320 319 318 312 308 306 306 306 306 306 305 304 303 303 302 300 300 299 300 301 303 303 305 307 307 308 309 308
315 315 313 314 315 315 314 314 313 310 309 307 306 306 306 306 304 304 304 303 299 298 297 297 298 300 300 302 301 303 303 306
317 315 315 316 316 316 316 315 313 312 311 309 306 305 304 304 303 301 300 298 297 297 297 300 300 300 302 298 298 298 300 302

GFSFLT2_925_thetae_183.txt.gz
Theta_e
347 341 335 332 333 339 341 341 340 334 331 332 332 334 336 337 338 339 341 341 336 334 333 334 334 334 334 334 333 336 338 335
347 344 341 340 334 333 336 334 332 331 332 333 334 337 338 338 338 340 339 337 335 334 334 335 334 334 333 333 333 332 337 332
347 346 344 343 342 337 332 332 333 333 334 336 337 341 340 339 338 339 336 335 334 335 334 333 333 333 333 333 331 336 331 332
347 346 345 345 343 342 341 341 341 341 342 341 340 340 340 340 339 339 335 335 335 334 333 332 331 332 331 329 331 332 331 336
343 346 346 345 343 344 341 342 341 342 342 343 340 340 340 340 339 337 335 334 332 331 330 330 330 329 328 328 330 331 331 334
340 341 343 343 339 341 341 342 342 343 343 343 341 341 341 339 339 336 336 333 333 331 331 330 330 327 327 327 328 329 329 331
339 341 341 342 341 343 343 344 344 343 344 341 341 340 340 339 339 337 336 334 333 332 330 329 326 324 324 325 326 327 328 329
340 341 341 342 342 343 344 342 342 341 342 341 342 339 339 339 338 337 335 333 332 330 327 324 322 320 320 321 322 323 325 327
340 342 341 342 342 342 341 342 343 342 342 341 341 340 339 338 337 335 333 330 328 325 323 320 318 317 316 318 320 322 323 326
341 343 342 342 341 342 341 341 340 340 341 341 341 340 339 337 335 333 330 326 324 322 320 317 315 315 316 318 319 320 321 323
341 343 342 342 341 342 342 341 342 340 341 341 338 338 338 336 334 331 326 324 322 320 317 315 314 315 316 318 318 318 319 319
341 344 342 341 341 342 342 341 341 338 338 338 337 336 335 334 332 328 324 323 321 319 315 314 314 316 317 318 318 318 318 318
342 343 343 341 341 341 341 338 336 335 334 333 334 335 332 330 327 324 323 322 320 317 314 314 315 318 316 318 317 317 317 317
344 345 343 341 340 338 336 335 331 327 326 328 331 330 326 324 322 321 321 322 319 316 314 314 316 317 317 316 317 315 314 315
347 345 342 340 338 335 331 326 322 320 322 323 320 321 320 320 319 319 319 317 316 313 313 314 316 316 316 316 318 317 314 312
345 343 340 339 337 333 328 324 320 318 316 314 313 314 315 316 315 313 311 310 311 312 314 314 313 315 315 314 313 315 315 313
344 341 337 335 332 330 325 323 319 314 313 310 309 309 309 308 307 308 307 306 307 306 309 311 312 312 312 312 311 311 312 313
329 332 328 329 326 324 323 320 311 309 307 306 306 306 305 306 307 306 305 303 300 301 303 305 305 305 307 309 309 309 310 310
319 322 320 321 321 320 318 314 312 308 307 307 307 307 307 307 307 306 305 303 303 303 302 301 302 302 302 303 303 303 304 306
319 317 316 318 319 317 317 315 314 312 312 312 310 309 308 307 306 303 303 301 300 300 300 300 299 299 300 302 303 302 301 303

GFSFLT2_925_thetae_186.txt.gz
Theta_e
345 333 334 335 335 336 338 342 341 340 339 335 333 332 331 333 334 337 338 341 338 333 333 334 334 333 333 334 333 331 335 338
347 335 333 335 337 337 338 341 341 341 338 334 333 331 333 333 335 338 338 341 337 334 333 333 334 334 334 333 331 330 333 339
347 341 338 336 336 340 341 342 342 340 334 333 332 335 337 336 337 337 339 339 335 333 333 334 334 333 332 330 329 330 336 338
347 345 342 341 340 338 342 342 339 335 334 334 335 341 339 340 339 341 337 336 334 333 334 334 333 331 329 325 328 332 336 335
349 347 345 344 341 341 337 338 337 335 337 338 339 341 341 341 340 339 337 334 334 334 333 332 330 333 330 325 330 331 334 332
347 347 347 345 344 344 340 342 342 342 343 342 339 340 341 340 340 338 337 334 334 333 332 332 331 330 328 328 328 329 332 329
343 346 348 346 345 345 342 343 342 343 343 343 339 342 343 341 341 338 335 334 334 332 332 332 330 328 326 327 328 329 330 328
341 342 345 346 346 345 343 344 343 343 344 344 341 343 341 340 340 337 336 336 335 333 333 330 327 325 323 325 325 327 328 326
341 342 341 343 343 345 343 345 345 345 344 344 340 342 340 340 338 338 337 335 334 333 330 326 323 321 320 321 322 324 327 324
342 343 341 340 344 346 345 344 343 342 341 340 340 340 341 339 337 337 336 333 331 328 324 322 319 317 317 320 321 323 326 323
343 343 343 343 342 344 343 344 342 343 342 343 339 340 340 339 338 336 334 330 327 324 322 319 317 316 316 319 320 321 324 322
343 343 343 343 342 342 343 342 342 341 340 342 342 342 340 339 336 334 331 327 325 322 320 317 316 316 316 319 318 319 320 320
345 345 344 343 342 342 342 343 341 341 341 341 341 340 339 337 335 332 328 325 323 321 318 314 314 315 318 319 318 318 318 318
344 346 344 343 342 341 342 341 338 337 336 337 337 337 336 334 332 329 326 324 322 320 315 314 316 317 318 318 317 316 316 316
343 346 345 343 342 341 339 335 332 331 329 332 333 333 332 331 327 325 324 322 322 318 315 314 318 316 318 317 316 315 314 313
347 347 345 343 342 341 339 333 324 324 325 323 322 322 322 321 320 320 319 317 317 314 314 316 318 317 315 315 314 314 313 312
346 346 344 342 341 339 334 330 327 322 319 317 315 314 315 314 313 312 312 312 310 310 313 312 314 315 314 312 312 311 312 312
335 341 340 339 338 334 330 327 322 316 312 311 310 309 310 311 311 311 311 311 311 311 311 310 311 312 312 311 309 309 308 310
325 329 330 331 330 328 327 325 321 315 311 309 307 306 308 309 311 311 311 310 308 307 306 306 306 306 306 306 306 305 305 307
320 320 320 321 322 321 320 319 315 312 311 309 310 311 311 310 309 308 307 305 303 303 303 304 304 304 302 302 302 303 304 305

GFSFLT2_925_thetae_189.txt.gz
Theta_e
338 333 335 340 340 339 338 340 341 338 337 336 334 332 330 330 331 333 336 332 330 329 328 329 330 331 331 331 329 331 333 337
341 334 333 338 342 341 341 341 341 339 338 337 334 332 331 331 333 337 338 339 336 332 331 331 332 332 333 331 328 332 337 338
342 337 333 335 338 341 341 341 341 340 339 337 334 332 331 332 334 336 337 340 338 333 332 332 333 333 332 330 327 331 337 337
346 339 333 335 338 340 341 342 342 341 340 337 333 331 331 333 334 336 337 339 337 333 332 333 333 332 330 328 328 335 336 333
347 344 336 335 338 339 342 343 342 341 339 335 333 333 335 336 336 338 338 337 335 333 333 334 332 332 330 324 326 334 334 332
347 346 341 338 339 337 341 342 342 340 337 334 333 339 339 340 339 337 338 338 334 333 334 333 330 331 330 329 329 333 331 332
348 346 343 340 339 341 338 340 340 337 336 334 333 337 342 339 340 339 338 337 335 333 334 333 330 328 327 327 328 331 330 330
348 347 345 343 340 344 341 337 335 335 336 338 337 337 341 341 340 339 338 336 333 333 332 331 330 329 326 326 327 329 328 328
347 347 346 344 342 345 344 341 340 339 339 341 340 338 341 342 340 340 339 335 334 334 332 331 328 326 324 324 325 328 327 328
343 346 347 346 344 344 345 343 344 342 343 342 342 340 341 343 340 340 338 336 335 335 332 328 325 322 321 322 324 327 325 326
341 343 346 347 345 344 344 344 344 343 344 344 344 342 340 341 340 338 338 336 335 333 329 325 321 319 318 320 324 325 324 323
340 341 343 344 343 343 345 344 343 343 342 343 342 340 338 340 339 338 337 335 332 329 325 322 319 317 316 319 321 323 323 322
341 342 341 341 344 344 343 344 344 342 342 342 340 341 340 338 338 336 335 333 330 328 324 320 318 316 318 318 318 319 320 320
342 342 342 341 341 342 343 342 342 341 341 342 342 341 340 339 338 334 330 328 326 324 322 319 316 316 318 317 317 315 318 318
343 343 343 342 341 341 341 340 338 336 336 338 339 337 337 336 334 332 326 325 324 321 319 317 316 318 318 317 316 316 313 313
345 344 343 342 342 341 340 339 332 334 332 333 333 332 333 333 332 328 325 323 320 317 315 314 318 317 317 315 315 314 312 312
345 344 343 342 341 341 340 338 336 334 330 327 326 326 327 327 325 323 321 317 314 315 315 315 314 314 313 311 312 313 312 311
339 344 343 341 341 340 338 336 333 327 322 321 319 319 318 318 318 318 316 315 315 315 314 314 315 314 314 313 314 311 310 310
330 331 334 337 337 336 335 334 331 327 320 316 313 313 313 313 314 314 316 315 315 314 313 313 314 313 311 311 311 310 309 309
325 326 325 326 328 328 327 324 322 321 318 315 312 309 310 311 313 313 311 313 312 312 313 310 310 310 310 309 307 306 306 307